Isikeli Krishna

Olheiro-Chefe - Tailevu Naitasiri
3 Dez 2028
Domingo
Processo

Personalidade

Adaptabilidade (13) Ambição (8) Controvérsia (11) Lealdade (8) Pressão (19) Profissionalismo (18) Espírito Esportivo (12) Temperamento (15)

Perfil

Estilo de Treinamento Democrático
Licença Continental A
Determinação 1
Gestão de Pessoas 5
Motivação 6
Disciplina 4
Satisfação no Trabalho
100%
Fadiga
0%
Função Olheiro-Chefe
Salário 13.6K p/s
Contrato 14.03.2029

Desempenho

Comportamento Bom
Eficácia do Treinamento
14%
Desenvolvimento do Jogador
25%
Prevenção de Lesões
25%
Implementação Tática
15%

Eventos Recentes

Avaliou um jogador agora
Participou de uma reunião de recrutamento agora
Avaliou um jogador agora
Avaliou um jogador agora
Avaliou um jogador agora
Avaliou um jogador agora
Avaliou um jogador 7d atrás
Avaliou um jogador 7d atrás

Monitorando agora

417
Jogador Clube Status Habilidade Confiança Observado Última observação Último voto
Yoav Dejaldeti Bnei Yehuda Ativo 90 / 80 40% 6 02.12.2028 -
James Durrington Brisbane Roar Ativo 86 / 97 40% 2 02.12.2028 -
Shalev Saadia Melbourne Victory Ativo 61 / 77 40% 3 02.12.2028 -
Sirgio Kammies Western Sydney Wanderers Ativo 121 / 110 40% 1 02.12.2028 -
Akam Moses PSIM Ativo 70 / 88 40% 17 01.12.2028 -
Or Yitzhak Bnei Yehuda Ativo 86 / 67 40% 7 01.12.2028 -
Shivam Naidu Lautoka Ativo 55 / 54 40% 8 01.12.2028 -
Riyatno Abiyoso PSIM Ativo 72 / 80 40% 5 01.12.2028 -
Fabby Clark Metallurg Ativo 93 / 80 40% 5 29.11.2028 -
Joe Van Hattum Hawke's Bay United Ativo 103 / 97 40% 1 29.11.2028 -
Stephen Amos Sanfrecce Hiroshima Ativo 80 / 103 40% 2 28.11.2028 -
Sardor Sadullayev Metallurg Ativo 84 / 82 40% 2 28.11.2028 -
Morel Ondobo Abena Jubilo Iwata Ativo 59 / 82 40% 1 27.11.2028 -
Muhammad Iqbal PSIM Ativo 69 / 78 40% 2 26.11.2028 -
James Stamatelopoulos WaiBOP United Ativo 84 / 94 40% 1 26.11.2028 -
Mohir Komilov AGMK Ativo 64 / 76 40% 5 25.11.2028 -
Khaled Tawhid Bnei Yehuda Ativo 111 / 94 40% 1 25.11.2028 -
Chris Van Hattum Southern United Ativo 74 / 92 40% 4 24.11.2028 -
Adhamjon Musulmonov Shortan Ativo 78 / 86 40% 3 24.11.2028 -
Abdulganeey Teslim Maluku Utara United Ativo 63 / 64 40% 1 24.11.2028 -
Amit Harel Bnei Yehuda Ativo 56 / 62 40% 9 23.11.2028 -
Rendy Razzaqu Madura United Ativo 54 / 68 40% 4 23.11.2028 -
Tomás Leuzzi Vegalta Sendai Ativo 107 / 89 40% 8 23.11.2028 -
Fidel Origa Ba Ativo 104 / 91 40% 4 23.11.2028 -
Kayne Razmovski Rewa Ativo 54 / 67 40% 20 22.11.2028 -
Nura Dan Megi Lokomotiv Ativo 81 / 77 40% 2 22.11.2028 -
Yamato Naito Ventforet Kofu Ativo 90 / 99 40% 20 20.11.2028 -
Mikheil Basheleishvili Bukhara Ativo 64 / 71 40% 5 20.11.2028 -
Iowane Matanisiga Labasa Ativo 57 / 52 40% 7 19.11.2028 -
Jai Just Hawke's Bay United Ativo 95 / 95 40% 2 19.11.2028 -
Austin Ayoubi Central Coast Mariners Ativo 117 / 119 40% 4 17.11.2028 -
Al-Zahri Atyrau Ativo 95 / 68 40% 10 16.11.2028 -
Ädilkhan Taňzharyqov Tobol Ativo 88 / 98 40% 2 16.11.2028 -
Bobomurod Bozorov Qizilqum Ativo 81 / 88 40% 5 15.11.2028 -
Edo Febriansyah Dewa United Ativo 76 / 82 40% 6 15.11.2028 -
Nikita Shevchenko Lokomotiv Ativo 106 / 82 40% 2 14.11.2028 -
Älisher Süleimen Shakhter Ativo 65 / 73 40% 1 14.11.2028 -
Achmad Iqbal Bachtiar Semen Padang Ativo 55 / 75 40% 4 13.11.2028 -
Richard Monday Ubong Vissel Kobe Ativo 107 / 102 40% 4 12.11.2028 -
Sardor Tukhtasinov Obod Ativo 88 / 65 40% 7 12.11.2028 -
Cyrus Margono Persija Ativo 78 / 93 40% 5 11.11.2028 -
Quvonchbek Abrayev Lokomotiv Ativo 90 / 99 40% 4 11.11.2028 -
Junior Mpanza Arema Ativo 64 / 77 40% 17 09.11.2028 -
James Bell Canterbury United Ativo 85 / 85 40% 2 09.11.2028 -
Reza Arya Pratama Persebaya Ativo 97 / 66 40% 3 08.11.2028 -
Krisna Bayu Otto Persik Ativo 86 / 88 40% 1 07.11.2028 -
Mohammed Ledua Navua Ativo 50 / 64 40% 3 05.11.2028 -
Dafa Setiawarman Dewa United Ativo 57 / 59 40% 3 04.11.2028 -
Farel Putra Wardani Semen Padang Ativo 45 / 61 40% 4 04.11.2028 -
Josaia Sela Lautoka Ativo 62 / 62 40% 6 04.11.2028 -
Theo Numberi Dewa United Ativo 78 / 70 40% 3 02.11.2028 -
Humoyunshoh Sayyotov Qizilqum Ativo 82 / 84 40% 3 02.11.2028 -
Tim Nelson WaiBOP United Ativo 70 / 76 40% 2 02.11.2028 -
Seth Clark Sydney FC Ativo 83 / 103 40% 9 01.11.2028 -
Abdurahmon Komilov Andijon Ativo 102 / 94 40% 8 01.11.2028 -
Harlan Suardi Bhayangkara Presisi Ativo 88 / 68 40% 3 31.10.2028 -
Hilman Syah PSM Ativo 98 / 76 40% 1 31.10.2028 -
Raka Cahyana PSIM Ativo 48 / 79 40% 6 28.10.2028 -
Diyorbek Haliyev Shortan Ativo 71 / 78 40% 2 28.10.2028 -
Bernard Bukari Macarthur FC Ativo 79 / 63 40% 10 27.10.2028 -
Ozodbek Marufov Nadroga Ativo 86 / 60 40% 11 26.10.2028 -
Umidjon Hamroyev Lokomotiv Ativo 73 / 100 40% 1 26.10.2028 -
Erkebūlan Rakhmetulla Atyrau Ativo 67 / 65 40% 1 25.10.2028 -
Yofandani Pranata Dewa United Ativo 77 / 54 40% 3 23.10.2028 -
Sunday Ahile Semen Padang Ativo 75 / 72 40% 3 23.10.2028 -
Adam Ndoram Dewa United Ativo 43 / 59 40% 1 23.10.2028 -
Joseph Ogenda Atyrau Ativo 89 / 77 40% 6 22.10.2028 -
José Meza Bhayangkara Presisi Ativo 85 / 73 40% 5 22.10.2028 -
Awan Setho Bhayangkara Presisi Ativo 97 / 70 40% 4 22.10.2028 -
Abdulvohid G'ulomov Andijon Ativo 81 / 91 40% 1 22.10.2028 -
Azamat Soyibov Kokand 1912 Ativo 92 / 78 40% 2 21.10.2028 -
Dejan Račić Bhayangkara Presisi Ativo 84 / 83 40% 7 21.10.2028 -
Muhammed Kabiru Ordabasy Ativo 92 / 108 40% 1 21.10.2028 -
Reuben Juma Dewa United Ativo 73 / 64 40% 2 15.10.2028 -
Yonatan Shani Hapoel Beer Sheva Ativo 60 / 92 40% 6 14.10.2028 -
Etonia Dogalau Ba Ativo 61 / 60 40% 5 14.10.2028 -
Armhel Yandeme Melbourne Victory Ativo 67 / 69 40% 1 14.10.2028 -
Fareed Sadat Bhayangkara Presisi Ativo 102 / 81 40% 10 13.10.2028 -
Aqil Savik Bhayangkara Presisi Ativo 77 / 86 40% 8 12.10.2028 -
Hlompho Zwane Melbourne Victory Ativo 89 / 78 40% 1 12.10.2028 -
Cameron Singh WaiBOP United Ativo 92 / 81 40% 1 11.10.2028 -
Thiab Mohamed Dewa United Ativo 92 / 71 40% 1 11.10.2028 -
Chris Sutton Hawke's Bay United Ativo 62 / 75 40% 1 11.10.2028 -
Sairusi Nalaubu Lautoka Ativo 75 / 88 40% 27 09.10.2028 -
Michael Lockyer Canterbury United Ativo 93 / 81 40% 4 09.10.2028 -
Maxim Orazov Akzhaiyk Ativo 88 / 80 40% 5 08.10.2028 -
Hanif Sjahbandi Persib Ativo 83 / 94 40% 4 08.10.2028 -
Winston Sutton Southern United Ativo 92 / 83 40% 2 07.10.2028 -
Satrio Azhar Aktobe Ativo 101 / 74 40% 1 07.10.2028 -
Suhrob Eshboyev Qizilqum Ativo 95 / 97 40% 7 06.10.2028 -
Elvis Osok AGMK Ativo 84 / 80 40% 1 06.10.2028 -
Emeka Nwabulu Nagoya Grampus Ativo 69 / 86 40% 1 06.10.2028 -
Aphile Ngobese Aktobe Ativo 81 / 90 40% 11 03.10.2028 -
Danil Podymskii Zhetysu Ativo 74 / 93 40% 4 03.10.2028 -
John Taiwo Hapoel Beer Sheva Ativo 70 / 77 40% 1 03.10.2028 -
Jayson Nettey Hapoel Kfar Saba Ativo 88 / 73 40% 5 02.10.2028 -
Adam Przybek Persib Ativo 78 / 92 40% 1 02.10.2028 -
Isikeli Sevanaia Rewa Ativo 74 / 51 40% 11 01.10.2028 -
Alex Nelson Navbahor Ativo 61 / 87 40% 4 26.09.2028 -
Cahya Supriadi PSIM Ativo 75 / 79 40% 7 23.09.2028 -
G'anisher Qodirov Shortan Ativo 91 / 80 40% 12 23.09.2028 -
Razak Abdullah Sydney FC Ativo 88 / 94 40% 3 23.09.2028 -
Enzo Lemos Avispa Fukuoka Ativo 80 / 87 40% 1 21.09.2028 -
James Hilton Macarthur FC Ativo 78 / 92 40% 8 19.09.2028 -
Stanislav Samoilov Zhetysu Ativo 73 / 80 40% 3 16.09.2028 -
Rendy Oscario Semen Padang Ativo 95 / 77 40% 6 16.09.2028 -
Daffa Fasya Borneo Ativo 79 / 61 40% 1 15.09.2028 -
Bahodir Halilov Nasaf Ativo 86 / 92 40% 3 13.09.2028 -
Gavriil Chizhov Akzhaiyk Ativo 84 / 92 40% 5 11.09.2028 -
Patrick Joseph Ba Ativo 55 / 59 40% 7 10.09.2028 -
Darold Kakasi Ba Ativo 48 / 54 40% 9 07.09.2028 -
Nematulloh Rustamjonov Andijon Ativo 98 / 90 40% 3 04.09.2028 -
Fortune Omoto Semen Padang Ativo 65 / 78 40% 6 04.09.2028 -
Hojiakbar Mamurov Mashal Ativo 71 / 51 40% 1 04.09.2028 -
Harrison Devenish-Meares Western Sydney Wanderers Ativo 104 / 99 40% 1 29.08.2028 -
Alex Nunes Newcastle Jets Ativo 97 / 97 40% 5 23.08.2028 -
Sūltan Būsyrmanov Tobol Ativo 93 / 91 40% 8 22.08.2028 -
Wahyudi Hamisi Persijap Ativo 81 / 69 40% 2 22.08.2028 -
Septian David Maluku Utara United Ativo 61 / 71 40% 4 22.08.2028 -
Neemish Prasad Rewa Ativo 47 / 64 40% 8 21.08.2028 -
Tevita Ravia Nadi Ativo 66 / 63 40% 3 21.08.2028 -
Dostonbek To'xtaboyev Mashal Ativo 70 / 77 40% 5 21.08.2028 -
Jonathan Mairiga Bunyodkor Ativo 81 / 69 40% 2 21.08.2028 -
Abidemi Alli Melbourne City Ativo 81 / 91 40% 4 20.08.2028 -
Israel Monga Adelaide United Ativo 80 / 90 40% 7 18.08.2028 -
Dane Kirwan Hawke's Bay United Ativo 82 / 85 40% 1 17.08.2028 -
Andhika Ramadhani Persik Ativo 62 / 78 40% 2 14.08.2028 -
Dane Barbarouses Southern United Ativo 72 / 79 40% 3 14.08.2028 -
Adu Emmanuel Team Wellington Ativo 75 / 83 40% 1 14.08.2028 -
Igor' Trofimets Tobol Ativo 75 / 75 40% 1 14.08.2028 -
Rikiya Uehara Jubilo Iwata Ativo 121 / 114 40% 3 13.08.2028 -
Saian Mūqanov Okzhetpes Ativo 75 / 95 40% 2 12.08.2028 -
Shota Uchiyama Albirex Niigata Ativo 88 / 89 40% 2 08.08.2028 -
Miswar Saputra Madura United Ativo 76 / 82 40% 5 07.08.2028 -
Mohammed Ledua Navua Perdido 50 / 55 40% 1 07.08.2028 -
Yacob Sayuri Maluku Utara United Ativo 93 / 70 40% 13 06.08.2028 -
Aporosa Yada Labasa Ativo 61 / 75 40% 6 05.08.2028 -
Tshepang Mogotlane Aktobe Ativo 62 / 66 40% 2 05.08.2028 -
Buyung Ismu Lessy Persijap Ativo 68 / 65 40% 3 01.08.2028 -
Usman Sadiq Lokomotiv Ativo 96 / 64 40% 5 19.07.2028 -
Rosyad Setiawan Semen Padang Ativo 76 / 57 40% 3 13.07.2028 -
Farhodjon Sohibjonov Neftchi Ativo 87 / 92 40% 1 11.07.2028 -
Khaled Kamal Ba Ativo 98 / 94 40% 12 09.07.2028 -
Jack Wale Navua Ativo 50 / 62 40% 4 09.07.2028 -
Barrie Limoki Nadroga Ativo 50 / 66 40% 1 07.07.2028 -
Paris Domfeh Auckland City Ativo 93 / 87 40% 4 06.07.2028 -
Joela Biuvanua Lautoka Ativo 46 / 57 40% 11 03.07.2028 -
Tadiwanashe Kuzamba Macarthur FC Ativo 111 / 101 40% 1 26.06.2028 -
Anthony Didulica Perth Glory Ativo 94 / 98 40% 9 25.06.2028 -
Behruz Soatov Rewa Ativo 85 / 72 40% 9 24.06.2028 -
Nathan Amanatidis Wellington Phoenix Ativo 93 / 90 40% 2 24.06.2028 -
Oliver Middleton Auckland FC Ativo 91 / 94 40% 1 20.06.2028 -
Owen Lewis Southern United Ativo 63 / 67 40% 9 19.06.2028 -
Teuku Ichsan Bhayangkara Presisi Ativo 83 / 62 40% 3 16.06.2028 -
Tommy Payne Hawke's Bay United Ativo 83 / 86 40% 1 12.06.2028 -
Sani Rizki PSBS Biak Ativo 64 / 79 40% 1 10.06.2028 -
Shuaibu Umar Pakhtakor Ativo 89 / 75 40% 1 05.06.2028 -
Mendonça Madura United Ativo 108 / 79 40% 1 05.06.2028 -
Yusuf Meilana Persik Ativo 73 / 71 40% 1 04.06.2028 -
Stefan McCowatt Hawke's Bay United Ativo 68 / 88 40% 12 03.06.2028 -
Misiwani Nairube Ba Ativo 68 / 53 40% 5 02.06.2028 -
George Plusnin Brisbane Roar Ativo 92 / 89 40% 21 01.06.2028 -
Umid Urunov Obod Ativo 64 / 74 40% 1 31.05.2028 -
Michael Garbett Hawke's Bay United Ativo 64 / 78 40% 3 30.05.2028 -
Talgat Nurgaliev Akzhaiyk Ativo 73 / 95 40% 5 27.05.2028 -
Zacharie Ebogo Adelaide United Ativo 79 / 68 40% 4 27.05.2028 -
Diego Latorre Sagan Tosu Ativo 66 / 88 40% 4 26.05.2028 -
Oliver Dragićević Melbourne Victory Ativo 76 / 91 40% 6 25.05.2028 -
Dendy Sulistyawan Bhayangkara Presisi Ativo 75 / 73 40% 7 25.05.2028 -
Tzuri Zeituni Maccabi Netanya Ativo 84 / 94 40% 6 23.05.2028 -
Kavian Rahmani Perth Glory Ativo 87 / 111 40% 1 23.05.2028 -
Saar Schwartz Hapoel Acre Ativo 60 / 70 40% 2 21.05.2028 -
Dylan Tevreden Gamba Osaka Ativo 112 / 79 40% 2 21.05.2028 -
Hokky Caraka Dewa United Ativo 52 / 84 40% 1 21.05.2028 -
O'ktamjon Abdumalikov Kokand 1912 Ativo 76 / 63 40% 6 20.05.2028 -
Kauã Rodrigo Macarthur FC Ativo 85 / 90 40% 7 20.05.2028 -
Kosta Bell Southern United Ativo 53 / 75 40% 1 19.05.2028 -
Adre Arido Metallurg Ativo 75 / 75 40% 10 16.05.2028 -
Daniel Atlan Maccabi Netanya Ativo 79 / 77 40% 1 16.05.2028 -
Dias Orynbasar Atyrau Ativo 87 / 81 40% 1 16.05.2028 -
Nabil Begg Ba Ativo 55 / 61 40% 4 15.05.2028 -
Rifky Dwi Septiawan Persita Ativo 69 / 87 40% 2 15.05.2028 -
Lucas Scicluna Perth Glory Ativo 81 / 88 40% 6 14.05.2028 -
Saidu Lawan Dewa United Ativo 69 / 85 40% 9 14.05.2028 -
James Lockyer Hawke's Bay United Ativo 57 / 65 40% 1 14.05.2028 -
Yehonatan Segev Maccabi Petach Tikva Ativo 55 / 80 40% 2 13.05.2028 -
Toumani Diakité Macarthur FC Ativo 74 / 94 40% 1 12.05.2028 -
Yuda Editya Madura United Ativo 74 / 58 40% 10 06.05.2028 -
Matías Nicosia Central Coast Mariners Ativo 85 / 76 40% 6 05.05.2028 -
Sheva Sanggasi Persijap Ativo 70 / 44 40% 6 04.05.2028 -
Reuben Otieno Neftchi Ativo 62 / 78 40% 4 04.05.2028 -
Areya Prasad Auckland City Ativo 67 / 76 40% 4 03.05.2028 -
Ilham Udin Armayn PSBS Biak Ativo 82 / 89 40% 7 01.05.2028 -
Kosta Just Hawke's Bay United Ativo 83 / 68 40% 1 30.04.2028 -
Isroiljon Tursunboyev Metallurg Ativo 65 / 68 40% 4 28.04.2028 -
Sam Tuiloma Waitakere United Ativo 47 / 54 40% 5 28.04.2028 -
Chinanu Victor Rewa Ativo 71 / 69 40% 9 25.04.2028 -
Sūltan Shymyrkhan Shakhter Ativo 51 / 73 40% 10 22.04.2028 -
Ryan De Vries Waitakere United Ativo 63 / 69 40% 4 22.04.2028 -
Axel Bakoude Hapoel Kiryat Shmona Ativo 64 / 75 40% 1 22.04.2028 -
Luke Vickery Macarthur FC Ativo 101 / 90 40% 29 20.04.2028 -
Daniel Cohen Maccabi Netanya Ativo 59 / 81 40% 4 20.04.2028 -
Success Makanjuola Adelaide United Ativo 80 / 89 40% 3 10.04.2028 -
Ko Shimura Sagan Tosu Ativo 116 / 104 40% 1 10.04.2028 -
Islambek Kuat Akzhaiyk Ativo 60 / 63 40% 1 10.04.2028 -
Make Aldo Maulidino PSIM Ativo 54 / 70 40% 7 09.04.2028 -
Abongwe Newman Lautoka Ativo 60 / 89 40% 7 07.04.2028 -
Kishan Sami Ba Ativo 64 / 61 40% 4 07.04.2028 -
Omer Dahan Maccabi Haifa Ativo 110 / 79 40% 1 07.04.2028 -
Sardorbek Hoshimov Sogdiana Ativo 91 / 80 40% 1 07.04.2028 -
Adi Satryo Arema Ativo 56 / 55 40% 8 05.04.2028 -
Orlando Thorpe Nasaf Ativo 87 / 83 40% 4 05.04.2028 -
Gianluca Pandeynuwu Persis Ativo 93 / 78 40% 4 04.04.2028 -
Dimas Drajad Persib Ativo 62 / 84 40% 3 04.04.2028 -
Jens Raven Bali United Ativo 52 / 62 40% 2 01.04.2028 -
Gavin Kwan Adsit Borneo Ativo 61 / 82 40% 9 27.03.2028 -
Felipe Fuentes Bnei Yehuda Ativo 62 / 66 40% 1 27.03.2028 -
Mohammed Alam Lautoka Ativo 48 / 55 40% 6 25.03.2028 -
Rauof Jbareen Hapoel Acre Ativo 84 / 73 40% 1 23.03.2028 -
Roy Buganim Hapoel Kfar Saba Ativo 100 / 93 40% 2 22.03.2028 -
Bautista Alonso Omiya Ardija Ativo 102 / 69 40% 1 22.03.2028 -
Septian Bagaskara PSM Ativo 61 / 69 40% 1 22.03.2028 -
Mishal Saad Hapoel Raanana Ativo 66 / 90 40% 4 20.03.2028 -
Shohruh Eshbo'tayev Shortan Ativo 89 / 114 40% 4 20.03.2028 -
Shodiyor Shodiboyev Lokomotiv Ativo 95 / 84 40% 10 17.03.2028 -
Daichi Suzuki Sagan Tosu Ativo 86 / 80 40% 6 14.03.2028 -
Ibrohim G'anixonov Mashal Ativo 94 / 90 40% 1 14.03.2028 -
Eldor Adhamov Sogdiana Ativo 103 / 93 40% 2 13.03.2028 -
Matt Dench Perth Glory Ativo 106 / 107 40% 2 13.03.2028 -
Mohammad Khanafi PSM Ativo 58 / 58 40% 1 10.03.2028 -
Haruna Attah AGMK Ativo 70 / 78 40% 2 08.03.2028 -
Yan Shicot Beitar Jerusalem Ativo 61 / 77 40% 1 06.03.2028 -
Rafael Andrade Rewa Ativo 85 / 71 40% 4 03.03.2028 -
Jack Warshawsky Melbourne Victory Ativo 113 / 108 40% 2 01.03.2028 -
Feby Eka Putra Persis Ativo 97 / 82 40% 2 29.02.2028 -
Mxolisi Bhengu Kokand 1912 Ativo 87 / 79 40% 3 26.02.2028 -
Marko Živanović Akzhaiyk Ativo 61 / 71 40% 1 26.02.2028 -
Oussama Fatmi Lautoka Ativo 92 / 74 40% 13 25.02.2028 -
Husna Al Malik PSM Ativo 86 / 67 40% 1 22.02.2028 -
Zafarbek Akramov Mashal Ativo 95 / 77 40% 1 21.02.2028 -
Mark Isozaki Omiya Ardija Ativo 66 / 103 40% 23 19.02.2028 -
Aji Kusuma Madura United Ativo 58 / 68 40% 1 19.02.2028 -
Adeeb Al-Hassan Nasaf Ativo 57 / 66 40% 2 16.02.2028 -
Niv Tubul Hapoel Kfar Saba Ativo 87 / 75 40% 3 10.02.2028 -
Fabien Adikiny Okzhetpes Ativo 84 / 74 40% 1 08.02.2028 -
Göktan Cörüt Gamba Osaka Ativo 62 / 67 40% 1 02.02.2028 -
Tommy Barbarouses Waitakere United Ativo 74 / 59 40% 1 31.01.2028 -
Muhammadjon Valiyev Nasaf Ativo 92 / 72 40% 5 24.01.2028 -
Jahongir Mamatqulov Qizilqum Ativo 81 / 88 40% 14 17.01.2028 -
Víctor Barona Melbourne City Ativo 86 / 87 40% 3 10.01.2028 -
Maicon Silva Semen Padang Ativo 50 / 66 40% 6 10.01.2028 -
Omar Suqrat Atyrau Ativo 55 / 85 40% 1 06.01.2028 -
Kristian Popovic Central Coast Mariners Ativo 98 / 91 40% 1 05.01.2028 -
Kamronbek Hamroyev Mashal Ativo 90 / 64 40% 3 02.01.2028 -
Luka Marijanović Wellington Phoenix Ativo 51 / 67 40% 1 01.01.2028 -
Avazxon Mamatxo'jayev Mashal Ativo 82 / 73 40% 1 01.01.2028 -
Atonio Tuivuna Lautoka Ativo 76 / 55 40% 4 31.12.2027 -
César Ayón Brisbane Roar Ativo 90 / 91 40% 2 31.12.2027 -
Sherzodbek Abduraimov Shortan Ativo 105 / 76 40% 3 29.12.2027 -
Farruhjon Qodirov Bukhara Ativo 98 / 69 40% 5 25.12.2027 -
Ibrahim Adel Sydney FC Ativo 77 / 96 40% 1 24.12.2027 -
Deklan Wood Waitakere United Ativo 67 / 73 40% 3 21.12.2027 -
Callum De Vries WaiBOP United Ativo 75 / 61 40% 1 17.12.2027 -
Tevita Waranaivalu Rewa Ativo 69 / 65 40% 8 15.12.2027 -
Tuiba Batiratu Nadi Ativo 57 / 51 40% 3 15.12.2027 -
Zainal Ali Navua Ativo 52 / 61 40% 3 11.12.2027 -
Vladimir Vomenko Okzhetpes Ativo 68 / 86 40% 1 11.12.2027 -
Ryan Kurnia Bhayangkara Presisi Ativo 61 / 58 40% 2 07.12.2027 -
Ilaisa Vulimainavuso Labasa Ativo 44 / 70 40% 4 05.12.2027 -
Oliver Evans Perth Glory Ativo 76 / 101 40% 7 04.12.2027 -
Abdumavlon Abdujalilov Bunyodkor Ativo 112 / 104 40% 3 04.12.2027 -
Ashnil Raju Labasa Ativo 44 / 47 40% 2 02.12.2027 -
Asilbek No'monov Nasaf Ativo 91 / 64 40% 14 27.11.2027 -
Valijon Rahimov Navbahor Ativo 94 / 104 40% 2 27.11.2027 -
Owen Lockyer Waitakere United Ativo 53 / 62 40% 3 25.11.2027 -
Mirjalol Jumayev Shortan Ativo 108 / 90 40% 1 24.11.2027 -
Jai Ajanović Central Coast Mariners Ativo 83 / 97 40% 1 24.11.2027 -
Habibi Jusuf Borneo Ativo 46 / 75 40% 7 23.11.2027 -
Ido Zavaro Beitar Jerusalem Ativo 74 / 92 40% 1 19.11.2027 -
Rocky Junior Nadi Ativo 62 / 55 40% 5 16.11.2027 -
Kou Gotou Shakhter Ativo 92 / 73 40% 9 15.11.2027 -
Ergash Ismoilov Mashal Ativo 88 / 92 40% 1 14.11.2027 -
Jolame Domonikibau Rewa Ativo 37 / 52 40% 3 11.11.2027 -
Owen Kirwan Waitakere United Ativo 62 / 78 40% 1 09.11.2027 -
Samandar Toirov Nasaf Ativo 59 / 60 40% 4 08.11.2027 -
Ilay Altman Maccabi Petach Tikva Ativo 69 / 84 40% 1 01.11.2027 -
Amir Hasanov Obod Ativo 48 / 58 40% 1 28.10.2027 -
Irham Nadzhofa Persija Ativo 33 / 47 40% 2 27.10.2027 -
Abdulaziz Al-Hadhood Okzhetpes Ativo 56 / 71 40% 3 24.10.2027 -
Guy Bar Hapoel Tel Aviv Ativo 50 / 62 40% 2 23.10.2027 -
Andrei Smolov Obod Ativo 64 / 90 40% 1 22.10.2027 -
Brian Micceli Avispa Fukuoka Ativo 94 / 84 40% 1 16.10.2027 -
Michael Barbarouses Hawke's Bay United Ativo 51 / 55 40% 3 15.10.2027 -
Raheem Nugraha Ba Ativo 48 / 55 40% 2 11.10.2027 -
Miroslav Lobantsev Okzhetpes Ativo 81 / 95 40% 1 06.10.2027 -
Ryan Barbarouses Canterbury United Ativo 57 / 56 40% 3 24.09.2027 -
Arian Pardo Adelaide United Ativo 87 / 99 40% 3 21.09.2027 -
Kasim Botan PSIM Ativo 65 / 82 40% 1 21.09.2027 -
Sanzhar Rahmatilia Taraz Ativo 40 / 67 40% 1 18.09.2027 -
Tim Stamatelopoulos Canterbury United Ativo 82 / 88 40% 1 15.09.2027 -
Wonderson Yakubu Hapoel Raanana Ativo 99 / 84 40% 13 14.09.2027 -
Azat Nurgaliev Akzhaiyk Ativo 87 / 81 40% 1 10.09.2027 -
Christopher Wasasala Labasa Ativo 56 / 65 40% 5 08.09.2027 -
Marcel Vergara Sydney FC Ativo 91 / 89 40% 2 28.08.2027 -
Steward Toata Nadroga Ativo 44 / 57 40% 2 21.08.2027 -
Zakhar Porokh Okzhetpes Ativo 75 / 92 40% 2 20.08.2027 -
Murodjon Komilov Kokand 1912 Ativo 71 / 93 40% 1 03.08.2027 -
Takumi Yasuno Vegalta Sendai Ativo 82 / 89 40% 6 31.07.2027 -
Ben Cacace Hawke's Bay United Ativo 65 / 73 40% 1 22.07.2027 -
Ady Setiawan Dewa United Ativo 72 / 84 40% 1 17.07.2027 -
Fabian Talladira Adelaide United Ativo 89 / 91 40% 6 11.07.2027 -
Yuval Kretzo Maccabi Petach Tikva Ativo 59 / 68 40% 3 03.07.2027 -
Heri Susanto PSBS Biak Ativo 85 / 66 40% 8 03.07.2027 -
Toshikazu Teruuchi Urawa Reds Ativo 72 / 96 40% 2 30.06.2027 -
Laisenia Nawalu Nasinu Ativo 64 / 47 34% 1 28.06.2027 -
Rusiate Doidoi Labasa Ativo 62 / 65 40% 1 26.06.2027 -
Lyle Chatburn Auckland City Ativo 70 / 74 40% 5 20.06.2027 -
Joji Vuakaca Labasa Ativo 61 / 56 40% 2 16.06.2027 -
Raymond Matlamela Rewa Ativo 85 / 69 40% 3 10.06.2027 -
Zach Lisolajski Melbourne City Ativo 88 / 101 40% 2 07.06.2027 -
Ricky Kambuaya Dewa United Ativo 65 / 91 40% 2 06.06.2027 -
Pablo Martínez Brisbane Roar Ativo 68 / 65 40% 2 02.06.2027 -
Riley Dalziell Auckland FC Ativo 92 / 87 40% 2 01.06.2027 -
Wataru Kamijo Sydney FC Ativo 76 / 77 40% 17 30.05.2027 -
Ryan Kalms Melbourne City Ativo 64 / 83 40% 1 29.05.2027 -
Ben van Dorssen Ba Ativo 60 / 69 40% 1 29.05.2027 -
Jovilisi Borisi Navua Ativo 62 / 52 40% 1 28.05.2027 -
Joshua Inserra Melbourne Victory Ativo 91 / 89 40% 2 27.05.2027 -
Harel Goldenberg Hapoel Kiryat Shmona Ativo 76 / 90 40% 2 25.05.2027 -
Noah McCann Central Coast Mariners Ativo 85 / 83 40% 2 25.05.2027 -
Ahmad Nur Hardianto Persita Ativo 76 / 64 40% 5 24.05.2027 -
Sitiveni Rakai Labasa Ativo 53 / 49 40% 2 24.05.2027 -
Dony Tri Pamungkas Persija Ativo 93 / 86 40% 2 20.05.2027 -
Ahmed Wahid Auckland FC Ativo 92 / 79 40% 2 18.05.2027 -
Tomás Olivarez Newcastle Jets Ativo 76 / 94 40% 1 17.05.2027 -
Oran Shoval Beitar Jerusalem Ativo 55 / 65 40% 1 10.05.2027 -
Akeimi Ralulu Labasa Ativo 42 / 72 40% 3 09.05.2027 -
Will McKay Macarthur FC Ativo 66 / 86 40% 3 07.05.2027 -
Diyorbek To'laboyev Nasaf Ativo 36 / 51 40% 2 05.05.2027 -
Daiki Sakata Bnei Yehuda Ativo 81 / 81 40% 1 05.05.2027 -
Samuel Navoce Labasa Ativo 48 / 53 40% 2 03.05.2027 -
Shivam Shandil Nasinu Ativo 45 / 48 40% 1 03.05.2027 -
Hafizh Rizkianur Persija Ativo 46 / 53 40% 2 29.04.2027 -
Andrei Alba Persis Ativo 96 / 88 40% 3 28.04.2027 -
Manuel Aguilar Melbourne City Ativo 67 / 76 40% 1 28.04.2027 -
Asilbek Tojiddinov Andijon Ativo 48 / 63 40% 2 24.04.2027 -
Sutanto Tan Persis Ativo 61 / 87 40% 8 24.04.2027 -
Iran Madura United Ativo 90 / 62 40% 1 21.04.2027 -
Diego García Adelaide United Ativo 73 / 78 40% 1 20.04.2027 -
Jayden Smith Wellington Phoenix Ativo 86 / 77 40% 3 15.04.2027 -
Setareki Hughes Rewa Ativo 51 / 63 40% 2 14.04.2027 -
Ginanjar Wahyu Bhayangkara Presisi Ativo 46 / 80 40% 5 13.04.2027 -
Ahmad Noviandani Madura United Ativo 69 / 72 40% 6 07.04.2027 -
Muhammad Isa PSBS Biak Ativo 52 / 79 40% 2 04.04.2027 -
Ben Mewett Western Sydney Wanderers Ativo 67 / 70 40% 2 04.04.2027 -
Ulug'bek Sunnatov Shortan Ativo 73 / 81 40% 2 02.04.2027 -
Hidetoshi Takeda Vegalta Sendai Ativo 72 / 92 40% 1 31.03.2027 -
Shohjahon Yorqinboyev Andijon Ativo 62 / 80 40% 1 30.03.2027 -
Juan Madjar PSBS Biak Ativo 59 / 70 40% 1 29.03.2027 -
Dylan Argüello Bnei Sakhnin Ativo 55 / 66 40% 2 28.03.2027 -
Siyabonga Hlengwa Navua Ativo 81 / 59 40% 1 28.03.2027 -
Betel Valésio Melbourne City Ativo 82 / 83 40% 1 28.03.2027 -
Filipe Baravilala Navua Ativo 46 / 71 40% 1 27.03.2027 -
Sitiveni Cavuilagi Lautoka Ativo 71 / 58 40% 1 26.03.2027 -
Maximiliano de los Santos Brisbane Roar Ativo 72 / 85 40% 2 24.03.2027 -
Kadú Borneo Ativo 88 / 77 40% 1 24.03.2027 -
Alan Maluku Utara United Ativo 95 / 102 40% 1 24.03.2027 -
Tevita Koroi Ba Ativo 55 / 62 40% 1 21.03.2027 -
Abdul Rahman PSM Ativo 55 / 79 40% 2 11.03.2027 -
Albert Nurullayev Bukhara Ativo 43 / 53 40% 2 04.03.2027 -
Nūraidar Äskerbek Taraz Ativo 46 / 65 40% 3 27.02.2027 -
Og'abek Asadov Shortan Ativo 40 / 76 40% 1 24.02.2027 -
Ori Hassan Bnei Yehuda Ativo 94 / 86 40% 1 21.02.2027 -
Reagan Ogle Melbourne City Ativo 83 / 81 40% 3 16.02.2027 -
Tyler Williams Sydney FC Ativo 67 / 83 40% 1 15.02.2027 -
Epeli Leiroti Lautoka Ativo 52 / 51 40% 1 15.02.2027 -
Luigi Gaspar Brisbane Roar Ativo 83 / 73 40% 1 08.02.2027 -
Akmaljon Muzaffarov Qizilqum Ativo 49 / 61 40% 1 08.02.2027 -
Miras Zhaqsymbetov Taraz Ativo 70 / 93 40% 2 07.02.2027 -
Leon Kofana Rewa Ativo 60 / 61 40% 1 07.02.2027 -
Sulton Rahmatov Qizilqum Ativo 40 / 60 40% 2 04.02.2027 -
Abdurahmon Sulaymonov Bunyodkor Ativo 78 / 54 40% 1 04.02.2027 -
Diyorbek Mamadaliyev Mashal Ativo 71 / 70 40% 1 31.01.2027 -
Miraziz Mahamadaliyev Andijon Ativo 43 / 61 40% 2 27.01.2027 -
Beniamino Swamy Nadroga Ativo 38 / 70 34% 1 18.01.2027 -
Tomás Aguirre Omiya Ardija Ativo 77 / 100 40% 1 14.01.2027 -
Rahul Naresh Ba Ativo 72 / 56 40% 1 12.01.2027 -
Tony Nair Nadroga Ativo 52 / 41 34% 1 11.01.2027 -
Victor Dethan PSM Ativo 65 / 65 40% 1 09.01.2027 -
Wahyu Agong Semen Padang Ativo 54 / 63 40% 1 09.01.2027 -
Abdul Naviko Nadroga Ativo 48 / 53 34% 1 01.01.2027 -
Abdulla Faisal Ordabasy Ativo 83 / 65 40% 1 15.12.2026 -
Sota Yokoyama Vegalta Sendai Ativo 92 / 74 40% 1 01.12.2026 -
Mohamed Emad Bukhara Ativo 88 / 61 40% 1 21.11.2026 -
Shungo Sugiura Nagoya Grampus Ativo 104 / 68 40% 1 17.11.2026 -
Abdallah Maga Mashal Ativo 86 / 69 40% 2 31.10.2026 -
Farruh Toshpo'latov Mashal Ativo 65 / 75 40% 2 27.10.2026 -
Muhammadbobur Karimov Shortan Ativo 43 / 91 40% 1 17.10.2026 -
Izzatullo Abdulhaqov Mashal Ativo 89 / 73 40% 2 15.10.2026 -
Ghulam Fatkur Rachman PSIM Ativo 45 / 71 40% 1 09.10.2026 -
Murod Ermatov Mashal Ativo 84 / 72 40% 2 04.10.2026 -
Nūrğaini Böribaev Okzhetpes Ativo 108 / 76 40% 1 24.09.2026 -
Suhrobjon Parmonqulov Mashal Ativo 44 / 51 40% 1 21.09.2026 -
Diyor Rahmatullayev Qizilqum Ativo 103 / 98 40% 1 20.09.2026 -
Dilshod Murtazoyev Nasaf Ativo 42 / 91 40% 1 12.09.2026 -
Noah Wood WaiBOP United Ativo 76 / 79 40% 1 11.09.2026 -
Qobylandy Kamariden Okzhetpes Ativo 52 / 61 40% 1 09.09.2026 -
Sena Ishibashi Shonan Bellmare Ativo 104 / 92 40% 1 08.09.2026 -
Tohirbek To'xtasinov Sogdiana Ativo 85 / 65 40% 1 04.09.2026 -
Jefferson Persis Ativo 58 / 73 40% 1 02.09.2026 -
Yoyo Aviv Maccabi Tel Aviv Ativo 44 / 54 40% 2 01.09.2026 -
Jaloliddin Sodiqov Navbahor Ativo 84 / 86 40% 1 26.08.2026 -
Sherzodbek Abdulboriyev Lokomotiv Ativo 94 / 57 40% 1 26.08.2026 -
Jack Brown Persita Ativo 50 / 71 40% 1 17.08.2026 -
Deklan Wood Ativo 72 / 72 40% 1 11.08.2026 -
Pauliasi Tulivou Nadi Ativo 55 / 59 34% 1 10.08.2026 -
Will Freney Perth Glory Ativo 83 / 87 40% 1 02.08.2026 -